Voltar ao catálogo

FENGYUN 1C DEB

AtivoPO
NORAD 32304·DEBRIS·🇨🇳 China

Lançado May 10, 1999 de Taiyuan Satellite Launch Center

Loading…

Próximas Passagens (próximas 24 horas)

TLE

EnvelhecendoSource: Space-Track

Época: Sep 10, 2026, 04:34 UTC

1 32304U 99025CWV 26253.19043527  .00002396  00000-0  58485-3 0  9999
2 32304  99.4201 245.1870 0049583 139.0913 221.4017 14.53002639602122

Acompanhe FENGYUN 1C DEB em tempo real com AllMySat

Download on the App Store